Content
SEND FEEDBACK

Daily
Averages
Monthly
Summary
French Polynesia

PAPEETE, FRENCH POLYNESIA


Home > Oceania > French Polynesia
Elevation: 2 meters     Latitude: 17 33S     Longitude: 149 36W

WEATHER
 
SELECT A DAY
Number of Records: 213,109;   Date Range: 6/30/96 - 9/30/14
 
SHARE

PRINT THIS DATA

[ ← Previous Day ]
WEATHER ALMANAC - 29 JANUARY, 2014
[ Next Day → ]
[ °F ]   °C
Weather ElementAverageHighLow
Temperature27.9 °C31 °C (12:00 pm)25 °C (2:30 am)
Dewpoint21.7 °C24 °C (10:30 am)20 °C (1:30 am)
Humidity68 %83 % (4:30 am)50 % (2:00 pm)
Barometer1011.9 hPa1013.2 hPa (9:00 am)1010.2 hPa (2:00 am)
Wind Speed9.3 km/h18.5 km/h (9:00 am)
Weather ElementAverage
Visibility12.6 km
Wind DirectionENE (58.2 °)

Weather ElementTotal
Precipitation---
Cooling Degree Days9.7 (Base 18.3)
Growing Degree Days18 (Base 10)
Averaged from 56 records on 29 January, 2014
WEATHER CONDITIONS BREAKOUT
WIND DIRECTION BREAKOUT
WEATHER BY HOUR - 29 JANUARY, 2014
[ °F ]   °C
Local TimeTemperatureDewpointHumidityBarometerVisibilityWind DirectionWind SpeedGust SpeedPrecipitationEventsConditions
12:30 AM26 °C21 °C74 %1011.2 hPa10 kmENE (60°)7.4 km/hPartly Cloudy
1:00 AM26 °C21 °C74 %1011.2 hPa10 kmENE (60°)9.3 km/hPartly Cloudy
1:30 AM26 °C20 °C69 %1011.2 hPa10 kmENE (60°)9.3 km/hPartly Cloudy
2:00 AM25.6 °C20.6 °C68 %1010.8 hPa19.3 kmENE (60°)7.4 km/hScattered Clouds
2:00 AM26 °C21 °C74 %1010.2 hPa10 kmENE (60°)7.4 km/hPartly Cloudy
2:30 AM25 °C21 °C78 %1010.2 hPa10 kmENE (60°)5.6 km/hPartly Cloudy
3:00 AM25 °C21 °C78 %1010.2 hPa10 kmNE (50°)5.6 km/hPartly Cloudy
3:30 AM25 °C21 °C78 %1010.2 hPa10 kmENE (60°)7.4 km/hPartly Cloudy
4:00 AM25 °C21 °C78 %1010.2 hPa10 kmENE (70°)11.1 km/hScattered Clouds
4:30 AM25 °C22 °C83 %1010.2 hPa10 kmENE (60°)7.4 km/hMostly Cloudy
5:00 AM25 °C20.6 °C71 %1011.2 hPa54.7 kmENE (60°)7.4 km/hClear
5:00 AM25 °C21 °C78 %1010.2 hPa10 kmENE (60°)7.4 km/hMostly Cloudy
5:30 AM25 °C21 °C78 %1011.2 hPa10 kmEast (80°)5.6 km/hPartly Cloudy
6:00 AM25 °C21 °C78 %1011.2 hPa10 kmEast (80°)5.6 km/hScattered Clouds
6:30 AM26 °C21 °C74 %1012.2 hPa10 kmCalmScattered Clouds
7:00 AM27 °C21 °C70 %1012.2 hPa10 kmCalmPartly Cloudy
7:30 AM28 °C21 °C66 %1012.2 hPa10 kmNE (50°)5.6 km/hPartly Cloudy
8:00 AM28.3 °C21.1 °C57 %1012.9 hPa30.6 kmNE (40°)7.4 km/hPartly Cloudy
8:00 AM29 °C21 °C62 %1012.2 hPa10 kmNE (40°)7.4 km/hPartly Cloudy
8:30 AM29 °C22 °C66 %1012.2 hPa10 kmNE (50°)13 km/hPartly Cloudy
9:00 AM30 °C22 °C62 %1013.2 hPa10 kmNE (40°)18.5 km/hPartly Cloudy
9:35 AM30 °C22 °C62 %1013.2 hPa10 kmNE (40°)16.7 km/hPartly Cloudy
10:00 AM30 °C23 °C66 %1013.2 hPa10 kmNE (40°)14.8 km/hPartly Cloudy
10:30 AM30 °C24 °C70 %1013.2 hPa10 kmNNE (30°)14.8 km/hPartly Cloudy
11:00 AM30 °C22.8 °C57 %1013.2 hPa30.6 kmNE (40°)13 km/hPartly Cloudy
11:00 AM30 °C23 °C66 %1013.2 hPa10 kmNE (40°)13 km/hScattered Clouds
11:30 AM30 °C23 °C66 %1012.2 hPa10 kmNNE (30°)13 km/hPartly Cloudy
12:00 PM31 °C23 °C62 %1012.2 hPa10 kmNE (40°)11.1 km/hScattered Clouds
12:30 PM30 °C23 °C66 %1012.2 hPa10 kmNE (40°)16.7 km/hPartly Cloudy
1:00 PM30 °C22 °C62 %1012.2 hPa10 kmNE (50°)14.8 km/hPartly Cloudy
1:30 PM31 °C22 °C58 %1011.2 hPa10 kmNNE (30°)18.5 km/hPartly Cloudy
2:00 PM30.6 °C21.7 °C50 %1011.9 hPa14.5 kmNE (50°)14.8 km/hPartly Cloudy
2:00 PM31 °C22 °C58 %1011.2 hPa10 kmNE (50°)14.8 km/hPartly Cloudy
2:30 PM31 °C23 °C62 %1011.2 hPa10 kmNE (50°)13 km/hScattered Clouds
3:00 PM30 °C22 °C62 %1011.2 hPa10 kmNE (40°)13 km/hPartly Cloudy
3:30 PM30 °C22 °C62 %1011.2 hPa10 kmVariable5.6 km/hPartly Cloudy
4:00 PM31 °C23 °C62 %1011.2 hPa10 kmNNE (30°)11.1 km/hPartly Cloudy
4:04 PM31 °C22 °C58 %1011.2 hPa10 kmNE (40°)13 km/hPartly Cloudy
4:30 PM30 °C22 °C62 %1011.2 hPa10 kmNE (40°)13 km/hPartly Cloudy
5:00 PM28.9 °C22.2 °C60 %1011.5 hPa25.7 kmNE (40°)9.3 km/hPartly Cloudy
5:00 PM29 °C22 °C66 %1011.2 hPa10 kmNE (40°)9.3 km/hPartly Cloudy
5:30 PM29 °C23 °C70 %1011.2 hPa10 kmNE (50°)11.1 km/hPartly Cloudy
6:00 PM29 °C22 °C66 %1011.2 hPa10 kmVariable7.4 km/hPartly Cloudy
6:30 PM28 °C22 °C70 %1012.2 hPa10 kmSouth (190°)13 km/hPartly Cloudy
7:00 PM28 °C22 °C70 %1012.2 hPa10 kmSouth (180°)11.1 km/hPartly Cloudy
7:30 PM27 °C21 °C70 %1012.2 hPa10 kmSouth (170°)7.4 km/hPartly Cloudy
8:00 PM27.2 °C21.1 °C62 %1012.9 hPa25.7 kmESE (120°)7.4 km/hScattered Clouds
8:00 PM27 °C21 °C70 %1012.2 hPa10 kmESE (120°)7.4 km/hPartly Cloudy
8:30 PM27 °C21 °C70 %1013.2 hPa10 kmVariable5.6 km/hPartly Cloudy
9:00 PM27 °C21 °C70 %1013.2 hPa10 kmENE (70°)5.6 km/hPartly Cloudy
9:30 PM26 °C21 °C74 %1013.2 hPa10 kmEast (90°)5.6 km/hPartly Cloudy
10:00 PM26 °C21 °C74 %1013.2 hPa10 kmEast (90°)5.6 km/hPartly Cloudy
10:30 PM26 °C21 °C74 %1013.2 hPa10 kmEast (100°)5.6 km/hPartly Cloudy
11:00 PM25.6 °C21.1 °C69 %1012.9 hPa25.7 kmESE (110°)3.7 km/hScattered Clouds
11:00 PM26 °C21 °C74 %1012.2 hPa10 kmESE (110°)3.7 km/hPartly Cloudy
11:30 PM26 °C21 °C74 %1012.2 hPa10 kmVariable3.7 km/hPartly Cloudy
Hourly data recorded from NTAA, located 0 kilometers away from Papeete, French Polynesia







STORIES FROM OUR PARTNERS